Flag for Germany Weather past 2 weeks in Eberswalde, Brandenburg, Germany

Now
52 °F

Clear.


Feels Like: 52 °F
Forecast: 48 / 67 °F
Wind: No wind

Location: Berlin-Tegel

Current Time: Sep 3, 2015 at 2:15:48 AM

Latest Report: Sep 3, 2015 at 1:20 AM


Visibility: 10 mi

Pressure: 29.98 "Hg

Humidity: 88%

Dew point: 48 °F

Location of EberswaldeLocation

Historic Weather in Eberswalde — Graph

°F

Eberswalde temperature yesterday

Maximum temperature yesterday: 68 °F (at 1:20 PM)
Minimum temperature yesterday: 54 °F (at 6:20 AM)
Average temperature yesterday: 61 °F

Past Weeks' High & Low Weather Summary

 TemperatureHumidityPressure
High93 °F (Aug 31, 2:20 PM)100% (Aug 19, 4:20 AM)30.30 "Hg (Aug 19, 4:20 AM)
Low52 °F (Aug 29, 3:50 AM)18% (Aug 21, 4:20 PM)29.71 "Hg (Aug 24, 7:20 PM)
Average68 °F62%30.01 "Hg
* Reported Aug 19 1:20 AM — Sep 3 1:20 AM, Eberswalde, Weather by CustomWeather, © 2015

Note: Actual official high and low records may vary slightly from our data, if they occured in-between our weather recording intervals... More about our weather records

Advertising

Eberswalde weather history for previous 24 hours

 ConditionsComfort  
Time TempWeatherWind HumidityBarometerVisibility
1:20 AM
Thu, Sep 3
52 °FClear.No wind88%29.98 "Hg10 mi
12:50 AM54 °FClear.No wind82%29.98 "Hg10 mi
11:20 PM
Wed, Sep 2
55 °FClear.No wind77%29.98 "Hg10 mi
10:50 PM57 °FClear.1 mph67%29.98 "Hg10 mi
10:20 PM57 °FClear.No wind67%29.98 "Hg10 mi
9:50 PM57 °FClear.No wind67%29.98 "Hg10 mi
9:20 PM59 °FClear.2 mph63%29.98 "Hg10 mi
8:50 PM61 °FSunny.2 mph59%29.98 "Hg10 mi
8:20 PM63 °FSunny.5 mph52%29.98 "Hg10 mi
7:50 PM63 °FSunny.8 mph52%29.98 "Hg10 mi
7:20 PM64 °FPartly sunny.10 mph49%29.98 "HgN/A
6:50 PM66 °FPassing clouds.10 mph46%29.98 "HgN/A
6:20 PM66 °FPassing clouds.7 mph46%29.98 "HgN/A
5:20 PM66 °FPassing clouds.9 mph46%29.98 "HgN/A
4:50 PM66 °FSunny.12 mph46%29.98 "Hg10 mi
4:20 PM66 °FScattered clouds.12 mph46%29.98 "HgN/A
3:50 PM68 °FScattered clouds.12 mph43%29.98 "HgN/A
3:20 PM66 °FScattered clouds.12 mph46%29.98 "HgN/A
2:50 PM66 °FScattered clouds.12 mph46%29.98 "HgN/A
2:20 PM68 °FScattered clouds.14 mph43%29.98 "HgN/A
1:50 PM66 °FScattered clouds.15 mph52%29.98 "HgN/A
1:20 PM68 °FScattered clouds.14 mph49%30.01 "HgN/A
12:50 PM66 °FScattered clouds.16 mph49%30.01 "HgN/A
12:20 PM64 °FScattered clouds.15 mph56%30.01 "HgN/A
11:50 AM63 °FPartly sunny.17 mph59%30.01 "HgN/A
11:20 AM63 °FPartly sunny.15 mph64%30.01 "HgN/A
10:50 AM63 °FPartly sunny.15 mph68%30.01 "HgN/A
10:20 AM61 °FPartly sunny.14 mph72%30.01 "HgN/A
9:50 AM61 °FPartly sunny.13 mph83%30.01 "HgN/A
9:20 AM59 °FBroken clouds.12 mph77%30.01 "HgN/A
8:50 AM57 °FBroken clouds.12 mph82%30.01 "HgN/A
8:20 AM57 °FScattered clouds.14 mph88%29.98 "HgN/A
7:50 AM55 °FScattered clouds.13 mph94%29.98 "HgN/A
7:20 AM55 °FScattered clouds.12 mph88%29.98 "HgN/A
6:50 AM54 °FPassing clouds.9 mph94%29.98 "HgN/A
6:20 AM54 °FPassing clouds.8 mph94%29.98 "HgN/A
5:50 AM55 °FPassing clouds.9 mph88%29.95 "HgN/A
5:20 AM55 °FPassing clouds.9 mph94%29.95 "HgN/A
4:50 AM55 °FPassing clouds.8 mph94%29.95 "HgN/A
4:20 AM55 °FPassing clouds.10 mph94%29.95 "HgN/A
3:50 AM57 °FPassing clouds.8 mph88%29.95 "HgN/A
3:20 AM57 °FPassing clouds.8 mph94%29.95 "HgN/A
2:50 AM57 °FPartly cloudy.9 mph94%29.95 "HgN/A
2:20 AM59 °FPassing clouds.12 mph88%29.92 "HgN/A
Weather by CustomWeather, © 2015

See weather overviewHow to use our weather pages